Geely Xingzuo 04 zu 04 xing

operational
NORAD ID: 65122 Int'l Des: 2025-170 Owner: GEESP Country: CN Constellation: geesatcom
LEOCIRCULAR

Geely Xingzuo 04 zu 04 xingについて

説明を読み込み中...

リアルタイム位置

3D地球を読み込み中...

次回通過

高度履歴

Altitude vs Time

uPlot chart will show altitude changes over time

軌道要素

1 65122U 25170D 26061.27278117 .00016196 00000-0 66706-3 0 9992
2 65122 49.9828 266.7151 0011444 277.6919 82.2737 15.24138482 31136
Epoch: Mar 2, 2026 • Age: 41 hours

現在のステータス

高度 504.9 km
速度 7.61 km/s
衛星直下点 47.33°N, 99.29°W
打ち上げ日 Aug 8, 2025
運用期間 0.5 years
タイプ other

技術仕様

分類 Payload
質量 130.00 kg
乾燥質量 130.00 kg
総質量 130.00 kg
長さ 1.00 m
直径 0.50 m
スパン 2.00 m
形状 Box + 2 pan
製造者 GWCG
バスタイプ GPS100
フェーズステータス In Orbit
所有者/国 GEESP/CN

大規模コンステレーション

Loading constellations...